MTI

Last updated on Sun May 15 2022 00:02:08 GMT+0000 (Coordinated Universal Time)

1 26102U 00014A 22134.07156250 .13335860 26964-5 14383-3 0 9997 2 26102 97.4395 68.1275 0009975 232.3535 322.2781 16.50257195233253

Satellite not in orbit